EDT,Max TemperatureF,Mean TemperatureF,Min TemperatureF,Max Dew PointF,MeanDew PointF,Min DewpointF,Max Humidity, Mean Humidity, Min Humidity, Max Sea Level PressureIn, Mean Sea Level PressureIn, Min Sea Level PressureIn, Max VisibilityMiles, Mean VisibilityMiles, Min VisibilityMiles, Max Wind SpeedMPH, Mean Wind SpeedMPH, Max Gust SpeedMPH,PrecipitationIn, CloudCover, Events, WindDirDegrees
2013-5-1,80,69,57,54,48,33,72,50,28,30.32,30.27,30.21,10,10,10,16,6,20,0.00,3,,143
2013-5-2,79,68,56,42,35,30,47,32,17,30.40,30.31,30.23,10,10,10,16,8,25,0.00,2,,131
2013-5-3,79,69,58,42,39,35,47,36,25,30.28,30.23,30.17,10,10,10,18,9,23,0.00,4,,129
2013-5-4,76,65,53,43,37,23,55,35,14,30.26,30.19,30.11,10,10,10,17,8,24,0.00,1,,113
2013-5-5,78,65,51,45,41,38,68,47,25,30.20,30.13,30.06,10,10,10,18,6,23,0.00,2,,87
2013-5-6,77,65,52,39,33,29,46,33,19,30.15,30.08,30.02,10,10,10,15,5,21,0.00,3,,71
2013-5-7,79,67,54,52,48,43,77,55,32,30.12,30.05,29.99,10,10,10,20,7,24,0.00,6,,70
2013-5-8,69,64,59,61,54,49,93,75,56,30.03,29.99,29.93,10,9,2,15,5,16,0.17,7,Rain,102
2013-5-9,64,59,53,58,55,50,100,86,72,29.98,29.93,29.88,10,5,0,15,7,17,0.27,7,Fog-Rain,236
2013-5-10,75,63,51,61,55,48,97,79,61,29.96,29.84,29.71,10,9,1,21,9,25,0.56,7,Rain-Thunderstorm,190
2013-5-11,61,54,46,57,47,42,93,87,80,29.80,29.75,29.68,10,6,1,24,14,29,0.14,8,Rain,229
2013-5-12,51,44,36,46,35,28,89,74,58,29.96,29.81,29.70,10,9,1,36,19,48,0.05,7,Rain,249
2013-5-13,46,40,34,34,31,28,82,70,57,30.15,30.07,29.98,10,10,10,24,14,32,T,5,Rain,250
2013-5-14,56,46,35,38,32,27,89,62,35,30.16,30.08,29.91,10,10,10,15,8,20,0.00,6,,205
2013-5-15,76,64,51,56,47,39,77,57,37,29.89,29.71,29.55,10,10,10,39,13,51,T,5,Rain,198
2013-5-16,73,61,49,49,44,30,83,53,23,30.03,29.84,29.74,10,10,10,22,11,28,0.00,2,,249
2013-5-17,66,55,44,41,39,37,83,62,40,30.22,30.16,30.04,10,10,10,13,6,18,0.00,5,,58
2013-5-18,74,63,51,47,42,38,68,52,35,30.24,30.18,30.12,10,10,10,14,9,18,T,6,Rain,70
2013-5-19,83,71,58,61,56,47,80,63,45,30.12,30.05,29.97,10,10,10,13,6,16,0.00,5,,147
2013-5-20,85,74,62,66,61,57,84,66,48,30.04,29.96,29.86,10,10,10,26,6,33,0.00,5,Thunderstorm,217
2013-5-21,85,75,65,67,62,57,93,74,54,29.93,29.83,29.75,10,10,5,21,10,28,0.02,6,Rain-Thunderstorm,210
2013-5-22,85,75,65,65,62,58,93,71,48,29.79,29.73,29.65,10,10,10,23,10,32,0.04,6,Rain-Thunderstorm,220
2013-5-23,70,56,42,64,56,43,93,82,70,29.93,29.77,29.69,10,8,2,23,14,29,0.31,7,Rain,266
2013-5-24,51,45,39,40,35,33,93,73,52,30.25,30.14,29.95,10,8,3,20,13,26,0.05,7,Rain,332
2013-5-25,58,49,39,37,34,31,85,63,40,30.28,30.23,30.20,10,10,10,21,11,28,0.00,2,,321
2013-5-26,63,53,43,45,36,29,86,58,29,30.25,30.22,30.18,10,10,10,22,10,25,0.00,1,,280
2013-5-27,71,56,40,43,36,31,92,58,23,30.29,30.22,30.13,10,10,10,10,5,15,0.00,4,,200
2013-5-28,65,59,53,63,54,37,100,76,51,30.15,30.02,29.92,10,7,1,23,8,31,1.57,8,Rain,136
2013-5-29,76,70,64,63,61,58,93,77,60,30.02,29.95,29.89,10,9,5,25,13,33,0.38,7,Rain-Thunderstorm,220
2013-5-30,82,72,62,65,62,58,90,73,55,30.12,30.08,30.04,10,10,8,20,9,24,0.00,4,,217
2013-5-31,86,76,65,65,62,60,84,64,44,30.06,30.01,29.93,10,10,10,24,10,32,0.01,4,Rain,214